QPF
0.06 0.04 0.03 0.03 0.04 0.07 0.11 0.16 0.16 0.24 0.21 0.20 0.22 0.28 0.26 0.16 0.13 0.16 0.13 0.11 0.10 0.11 0.10 0.08 0.08 0.08 0.06 0.06 0.06 0.05 0.04 0.04 0.05 0.06 0.06 0.05 0.04 0.04 0.05 0.07 0.09 0.11 0.12
0.07 0.07 0.05 0.04 0.04 0.05 0.07 0.09 0.11 0.14 0.15 0.15 0.14 0.14 0.15 0.12 0.09 0.09 0.08 0.07 0.07 0.06 0.07 0.06 0.06 0.06 0.05 0.04 0.04 0.04 0.03 0.04 0.05 0.07 0.08 0.07 0.06 0.05 0.05 0.07 0.09 0.11 0.11
0.09 0.06 0.06 0.05 0.04 0.05 0.06 0.06 0.07 0.07 0.08 0.09 0.09 0.09 0.08 0.08 0.08 0.07 0.08 0.07 0.05 0.04 0.04 0.04 0.04 0.04 0.04 0.04 0.04 0.04 0.04 0.04 0.05 0.08 0.10 0.09 0.08 0.06 0.06 0.07 0.09 0.10 0.10
0.07 0.06 0.06 0.04 0.04 0.03 0.04 0.05 0.05 0.05 0.05 0.06 0.07 0.07 0.07 0.09 0.09 0.07 0.06 0.05 0.04 0.04 0.03 0.03 0.03 0.03 0.03 0.03 0.04 0.05 0.05 0.06 0.07 0.08 0.08 0.08 0.08 0.08 0.07 0.07 0.09 0.11 0.12
0.07 0.07 0.06 0.05 0.03 0.02 0.03 0.05 0.06 0.05 0.04 0.04 0.05 0.06 0.06 0.05 0.05 0.05 0.04 0.04 0.04 0.04 0.03 0.02 0.01 0.01 0.01 0.01 0.02 0.03 0.04 0.04 0.05 0.07 0.08 0.09 0.09 0.08 0.08 0.07 0.08 0.10 0.11
0.10 0.08 0.07 0.08 0.06 0.04 0.03 0.03 0.05 0.05 0.04 0.04 0.04 0.04 0.03 0.02 0.02 0.02 0.02 0.01 0.01 0.01 0.01 0.01 0.00 0.00 0.01 0.01 0.01 0.01 0.01 0.02 0.03 0.04 0.06 0.08 0.09 0.09 0.10 0.10 0.10 0.13 0.15
0.06 0.05 0.04 0.03 0.02 0.02 0.02 0.02 0.02 0.03 0.03 0.03 0.02 0.02 0.01 0.01 0.00 0.00 0.00 0.01 0.01 0.00 0.00 0.00 0.01 0.01 0.01 0.01 0.01 0.01 0.01 0.01 0.02 0.02 0.03 0.04 0.05 0.06 0.07 0.11 0.15 0.17 0.18
0.05 0.04 0.03 0.02 0.01 0.01 0.01 0.01 0.01 0.01 0.01 0.01 0.01 0.01 0.00 0.00 0.00 0.00 0.00 0.00 0.00 0.00 0.00 0.01 0.01 0.01 0.01 0.01 0.01 0.01 0.01 0.01 0.02 0.02 0.03 0.04 0.04 0.05 0.07 0.08 0.12 0.16 0.18
0.04 0.03 0.02 0.01 0.01 0.00 0.00 0.00 0.00 0.00 0.00 0.00 0.00 0.01 0.01 0.01 0.00 0.00 0.00 0.00 0.00 0.00 0.00 0.00 0.00 0.00 0.00 0.01 0.01 0.01 0.01 0.02 0.02 0.02 0.03 0.03 0.03 0.05 0.07 0.08 0.11 0.14 0.15
0.03 0.03 0.02 0.01 0.01 0.00 0.00 0.00 0.00 0.00 0.00 0.00 0.00 0.00 0.00 0.00 0.01 0.01 0.01 0.00 0.00 0.00 0.00 0.00 0.00 0.00 0.00 0.00 0.01 0.01 0.01 0.01 0.02 0.02 0.02 0.03 0.04 0.06 0.07 0.07 0.08 0.10 0.12
0.05 0.04 0.04 0.02 0.01 0.01 0.00 0.00 0.00 0.00 0.00 0.00 0.00 0.00 0.00 0.00 0.01 0.01 0.01 0.00 0.00 0.00 0.00 0.00 0.00 0.00 0.00 0.00 0.01 0.02 0.02 0.02 0.02 0.02 0.02 0.03 0.04 0.05 0.06 0.06 0.07 0.08 0.10
0.08 0.04 0.03 0.02 0.01 0.01 0.00 0.00 0.00 0.00 0.00 0.00 0.00 0.00 0.00 0.00 0.00 0.01 0.01 0.01 0.00 0.00 0.00 0.00 0.01 0.01 0.01 0.01 0.01 0.01 0.03 0.06 0.05 0.04 0.03 0.04 0.04 0.04 0.04 0.05 0.06 0.07 0.09
0.13 0.07 0.03 0.02 0.02 0.02 0.01 0.00 0.00 0.00 0.01 0.01 0.01 0.01 0.01 0.00 0.00 0.00 0.00 0.01 0.01 0.01 0.01 0.00 0.02 0.02 0.01 0.01 0.01 0.01 0.02 0.07 0.09 0.06 0.05 0.04 0.04 0.04 0.04 0.04 0.05 0.07 0.10
0.15 0.11 0.04 0.02 0.02 0.02 0.01 0.01 0.01 0.00 0.00 0.00 0.01 0.01 0.00 0.00 0.00 0.00 0.00 0.01 0.01 0.01 0.01 0.01 0.01 0.01 0.01 0.01 0.01 0.01 0.03 0.07 0.09 0.07 0.07 0.06 0.05 0.04 0.04 0.04 0.05 0.06 0.10
0.07 0.06 0.04 0.03 0.02 0.01 0.01 0.01 0.00 0.00 0.00 0.00 0.00 0.00 0.00 0.00 0.01 0.00 0.00 0.01 0.01 0.01 0.01 0.01 0.01 0.01 0.01 0.01 0.01 0.01 0.03 0.06 0.08 0.08 0.08 0.07 0.06 0.06 0.05 0.05 0.04 0.05 0.08
0.06 0.04 0.03 0.03 0.01 0.01 0.01 0.00 0.00 0.00 0.00 0.00 0.00 0.00 0.01 0.01 0.01 0.00 0.00 0.01 0.01 0.01 0.01 0.01 0.01 0.01 0.00 0.00 0.00 0.01 0.02 0.03 0.06 0.07 0.07 0.05 0.05 0.04 0.05 0.05 0.05 0.04 0.04
0.06 0.05 0.04 0.02 0.01 0.01 0.00 0.00 0.00 0.00 0.00 0.00 0.00 0.00 0.01 0.01 0.01 0.01 0.00 0.00 0.00 0.01 0.01 0.01 0.01 0.01 0.01 0.01 0.01 0.01 0.02 0.02 0.03 0.04 0.03 0.03 0.03 0.03 0.02 0.03 0.03 0.03 0.03
0.05 0.04 0.03 0.02 0.02 0.01 0.01 0.01 0.01 0.01 0.01 0.00 0.00 0.00 0.01 0.01 0.01 0.01 0.00 0.00 0.00 0.01 0.01 0.01 0.02 0.02 0.02 0.01 0.01 0.01 0.01 0.01 0.01 0.01 0.01 0.01 0.02 0.02 0.02 0.02 0.01 0.01 0.01
0.04 0.04 0.03 0.01 0.01 0.01 0.01 0.01 0.01 0.01 0.01 0.01 0.01 0.01 0.01 0.01 0.01 0.01 0.00 0.00 0.00 0.01 0.01 0.01 0.02 0.02 0.01 0.01 0.01 0.00 0.01 0.00 0.00 0.00 0.01 0.00 0.00 0.01 0.01 0.01 0.01 0.01 0.01
0.03 0.04 0.03 0.02 0.02 0.02 0.02 0.01 0.01 0.01 0.01 0.01 0.02 0.01 0.01 0.01 0.01 0.01 0.00 0.00 0.01 0.01 0.01 0.01 0.02 0.02 0.01 0.01 0.01 0.00 0.00 0.00 0.00 0.00 0.00 0.00 0.00 0.00 0.00 0.01 0.01 0.01 0.00
0.05 0.05 0.04 0.01 0.01 0.02 0.01 0.01 0.01 0.01 0.01 0.01 0.02 0.02 0.01 0.01 0.01 0.00 0.00 0.00 0.01 0.01 0.01 0.01 0.01 0.01 0.01 0.01 0.00 0.00 0.00 0.00 0.00 0.00 0.00 0.00 0.00 0.00 0.00 0.01 0.01 0.01 0.01
0.04 0.03 0.03 0.02 0.02 0.02 0.01 0.01 0.01 0.01 0.01 0.01 0.02 0.02 0.02 0.01 0.00 0.00 0.00 0.01 0.01 0.01 0.01 0.01 0.01 0.01 0.01 0.00 0.00 0.00 0.00 0.00 0.00 0.00 0.00 0.00 0.00 0.00 0.00 0.00 0.00 0.00 0.00
0.03 0.02 0.02 0.02 0.02 0.02 0.01 0.02 0.01 0.01 0.01 0.02 0.02 0.02 0.01 0.01 0.01 0.01 0.01 0.01 0.01 0.01 0.01 0.01 0.01 0.01 0.00 0.00 0.00 0.00 0.00 0.00 0.00 0.00 0.00 0.00 0.00 0.00 0.00 0.00 0.00 0.00 0.00
0.02 0.02 0.02 0.01 0.01 0.01 0.01 0.01 0.02 0.01 0.02 0.02 0.02 0.02 0.01 0.01 0.00 0.01 0.01 0.01 0.01 0.01 0.01 0.01 0.00 0.00 0.00 0.00 0.00 0.00 0.00 0.00 0.00 0.00 0.00 0.00 0.00 0.00 0.00 0.00 0.00 0.00 0.00
0.01 0.01 0.02 0.02 0.02 0.02 0.01 0.01 0.02 0.02 0.02 0.02 0.01 0.01 0.01 0.01 0.01 0.01 0.01 0.00 0.01 0.01 0.01 0.01 0.00 0.00 0.00 0.00 0.00 0.00 0.00 0.00 0.00 0.00 0.00 0.00 0.00 0.00 0.00 0.00 0.00 0.00 0.00
0.02 0.01 0.02 0.02 0.02 0.02 0.01 0.01 0.01 0.01 0.01 0.01 0.01 0.01 0.01 0.01 0.01 0.01 0.00 0.00 0.01 0.01 0.01 0.01 0.00 0.00 0.00 0.00 0.00 0.00 0.00 0.00 0.00 0.00 0.00 0.00 0.00 0.00 0.00 0.00 0.00 0.00 0.00
MSLP
1016.82 1016.83 1016.85 1016.85 1016.79 1016.67 1016.48 1016.24 1015.96 1015.69 1015.46 1015.30 1015.23 1015.26 1015.36 1015.54 1015.74 1015.95 1016.15 1016.33 1016.50 1016.66 1016.83 1017.05 1017.30 1017.62 1017.97 1018.36 1018.76 1019.14 1019.47 1019.75 1019.95 1020.07 1020.14 1020.14 1020.11 1020.07 1020.03 1020.02 1020.04 1020.13 1020.28
1017.26 1017.33 1017.38 1017.37 1017.27 1017.08 1016.80 1016.46 1016.11 1015.79 1015.54 1015.39 1015.35 1015.42 1015.56 1015.76 1015.97 1016.17 1016.35 1016.51 1016.64 1016.78 1016.93 1017.13 1017.37 1017.66 1017.99 1018.35 1018.70 1019.03 1019.32 1019.56 1019.74 1019.86 1019.92 1019.95 1019.95 1019.94 1019.94 1019.97 1020.03 1020.14 1020.31
1017.61 1017.76 1017.87 1017.88 1017.78 1017.55 1017.21 1016.82 1016.42 1016.08 1015.83 1015.70 1015.71 1015.82 1016.01 1016.24 1016.47 1016.67 1016.83 1016.95 1017.04 1017.13 1017.24 1017.38 1017.57 1017.81 1018.07 1018.36 1018.65 1018.92 1019.15 1019.35 1019.50 1019.62 1019.70 1019.75 1019.80 1019.83 1019.88 1019.94 1020.04 1020.17 1020.36
1017.90 1018.15 1018.35 1018.42 1018.35 1018.13 1017.79 1017.38 1016.97 1016.62 1016.38 1016.28 1016.32 1016.48 1016.71 1016.96 1017.20 1017.40 1017.53 1017.61 1017.65 1017.68 1017.71 1017.78 1017.89 1018.04 1018.22 1018.42 1018.63 1018.83 1019.00 1019.16 1019.29 1019.40 1019.50 1019.58 1019.66 1019.74 1019.83 1019.92 1020.05 1020.20 1020.40
1018.15 1018.53 1018.84 1019.01 1019.02 1018.85 1018.53 1018.14 1017.74 1017.40 1017.18 1017.11 1017.17 1017.35 1017.59 1017.86 1018.09 1018.27 1018.36 1018.40 1018.38 1018.33 1018.29 1018.27 1018.28 1018.34 1018.42 1018.53 1018.65 1018.78 1018.90 1019.01 1019.11 1019.21 1019.31 1019.41 1019.51 1019.62 1019.73 1019.85 1019.99 1020.16 1020.37
1018.39 1018.90 1019.34 1019.64 1019.74 1019.65 1019.40 1019.05 1018.68 1018.36 1018.15 1018.08 1018.15 1018.33 1018.57 1018.81 1019.02 1019.16 1019.22 1019.19 1019.11 1018.99 1018.87 1018.77 1018.70 1018.66 1018.65 1018.67 1018.71 1018.76 1018.81 1018.87 1018.93 1019.00 1019.08 1019.16 1019.26 1019.37 1019.49 1019.63 1019.79 1019.99 1020.21
1018.62 1019.26 1019.83 1020.24 1020.46 1020.46 1020.28 1019.99 1019.66 1019.37 1019.17 1019.10 1019.15 1019.30 1019.50 1019.71 1019.87 1019.97 1019.97 1019.89 1019.75 1019.58 1019.39 1019.21 1019.06 1018.95 1018.86 1018.79 1018.75 1018.71 1018.69 1018.67 1018.67 1018.67 1018.70 1018.75 1018.81 1018.90 1019.02 1019.17 1019.36 1019.59 1019.87
1018.83 1019.56 1020.23 1020.75 1021.07 1021.16 1021.07 1020.84 1020.56 1020.29 1020.10 1020.01 1020.04 1020.14 1020.30 1020.45 1020.55 1020.59 1020.55 1020.42 1020.23 1020.01 1019.77 1019.54 1019.33 1019.14 1018.98 1018.83 1018.70 1018.58 1018.46 1018.34 1018.24 1018.16 1018.10 1018.07 1018.08 1018.13 1018.24 1018.41 1018.64 1018.94 1019.31
1018.99 1019.78 1020.51 1021.10 1021.49 1021.66 1021.64 1021.48 1021.25 1021.01 1020.83 1020.73 1020.72 1020.78 1020.88 1020.97 1021.02 1021.00 1020.91 1020.74 1020.52 1020.26 1019.98 1019.71 1019.45 1019.21 1018.98 1018.75 1018.53 1018.30 1018.07 1017.83 1017.60 1017.40 1017.22 1017.09 1017.03 1017.03 1017.14 1017.34 1017.65 1018.06 1018.56
1019.06 1019.87 1020.62 1021.24 1021.67 1021.89 1021.93 1021.83 1021.66 1021.47 1021.31 1021.21 1021.18 1021.20 1021.25 1021.28 1021.28 1021.21 1021.07 1020.87 1020.62 1020.34 1020.04 1019.74 1019.44 1019.14 1018.84 1018.54 1018.21 1017.87 1017.51 1017.13 1016.76 1016.41 1016.11 1015.87 1015.72 1015.68 1015.79 1016.04 1016.45 1017.00 1017.67
1019.05 1019.83 1020.55 1021.15 1021.59 1021.85 1021.94 1021.90 1021.78 1021.65 1021.53 1021.46 1021.42 1021.43 1021.44 1021.43 1021.38 1021.27 1021.11 1020.88 1020.61 1020.30 1019.98 1019.65 1019.32 1018.97 1018.61 1018.22 1017.79 1017.33 1016.83 1016.31 1015.79 1015.30 1014.87 1014.52 1014.30 1014.24 1014.36 1014.68 1015.20 1015.91 1016.77
1018.99 1019.69 1020.35 1020.91 1021.33 1021.59 1021.72 1021.75 1021.70 1021.64 1021.58 1021.55 1021.54 1021.54 1021.54 1021.50 1021.42 1021.28 1021.09 1020.84 1020.55 1020.23 1019.89 1019.53 1019.16 1018.77 1018.34 1017.87 1017.35 1016.78 1016.16 1015.51 1014.87 1014.25 1013.70 1013.27 1012.99 1012.91 1013.07 1013.46 1014.10 1014.95 1015.99
1018.91 1019.53 1020.10 1020.59 1020.97 1021.23 1021.40 1021.48 1021.51 1021.53 1021.55 1021.57 1021.60 1021.62 1021.62 1021.57 1021.47 1021.31 1021.10 1020.83 1020.52 1020.18 1019.82 1019.44 1019.04 1018.61 1018.13 1017.60 1017.00 1016.35 1015.64 1014.90 1014.15 1013.44 1012.82 1012.33 1012.02 1011.94 1012.13 1012.59 1013.32 1014.29 1015.47
1018.89 1019.41 1019.89 1020.30 1020.64 1020.89 1021.08 1021.22 1021.33 1021.43 1021.52 1021.61 1021.69 1021.74 1021.75 1021.70 1021.59 1021.41 1021.17 1020.89 1020.57 1020.22 1019.84 1019.45 1019.02 1018.56 1018.05 1017.48 1016.85 1016.15 1015.39 1014.60 1013.81 1013.06 1012.41 1011.89 1011.58 1011.51 1011.72 1012.22 1013.00 1014.04 1015.29
1018.99 1019.41 1019.80 1020.14 1020.42 1020.66 1020.87 1021.05 1021.23 1021.40 1021.56 1021.71 1021.83 1021.91 1021.93 1021.88 1021.76 1021.58 1021.34 1021.04 1020.71 1020.36 1019.98 1019.58 1019.15 1018.68 1018.16 1017.59 1016.95 1016.26 1015.50 1014.72 1013.94 1013.20 1012.56 1012.06 1011.76 1011.70 1011.92 1012.43 1013.21 1014.25 1015.50
1019.23 1019.57 1019.88 1020.15 1020.38 1020.60 1020.82 1021.03 1021.25 1021.47 1021.67 1021.86 1022.01 1022.11 1022.14 1022.10 1021.99 1021.80 1021.56 1021.27 1020.95 1020.60 1020.23 1019.84 1019.43 1018.98 1018.48 1017.94 1017.34 1016.69 1015.99 1015.26 1014.54 1013.86 1013.27 1012.82 1012.55 1012.50 1012.71 1013.19 1013.93 1014.91 1016.07
1019.63 1019.90 1020.14 1020.34 1020.54 1020.73 1020.94 1021.15 1021.39 1021.62 1021.85 1022.06 1022.22 1022.32 1022.36 1022.32 1022.21 1022.04 1021.82 1021.55 1021.25 1020.93 1020.59 1020.23 1019.84 1019.43 1018.99 1018.50 1017.97 1017.39 1016.79 1016.16 1015.54 1014.95 1014.45 1014.06 1013.83 1013.79 1013.98 1014.41 1015.06 1015.92 1016.94
1020.16 1020.37 1020.55 1020.71 1020.86 1021.02 1021.20 1021.39 1021.61 1021.84 1022.05 1022.24 1022.39 1022.49 1022.53 1022.50 1022.41 1022.27 1022.08 1021.85 1021.59 1021.32 1021.02 1020.70 1020.37 1020.01 1019.62 1019.21 1018.76 1018.29 1017.79 1017.28 1016.78 1016.31 1015.91 1015.60 1015.42 1015.40 1015.56 1015.91 1016.45 1017.17 1018.01
1020.75 1020.93 1021.06 1021.17 1021.28 1021.40 1021.54 1021.70 1021.88 1022.06 1022.24 1022.40 1022.53 1022.61 1022.65 1022.64 1022.58 1022.48 1022.34 1022.17 1021.98 1021.75 1021.51 1021.25 1020.96 1020.66 1020.33 1019.99 1019.62 1019.24 1018.86 1018.47 1018.09 1017.74 1017.44 1017.22 1017.10 1017.09 1017.23 1017.51 1017.94 1018.50 1019.17
1021.35 1021.50 1021.60 1021.67 1021.74 1021.82 1021.91 1022.03 1022.15 1022.28 1022.41 1022.53 1022.63 1022.70 1022.74 1022.76 1022.74 1022.70 1022.63 1022.53 1022.40 1022.24 1022.06 1021.84 1021.60 1021.34 1021.06 1020.77 1020.47 1020.17 1019.87 1019.58 1019.32 1019.08 1018.88 1018.74 1018.67 1018.69 1018.82 1019.04 1019.38 1019.81 1020.32
1021.91 1022.03 1022.11 1022.16 1022.20 1022.24 1022.29 1022.35 1022.42 1022.50 1022.58 1022.66 1022.73 1022.80 1022.86 1022.91 1022.95 1022.97 1022.97 1022.95 1022.89 1022.79 1022.66 1022.48 1022.27 1022.03 1021.77 1021.50 1021.24 1020.99 1020.75 1020.54 1020.36 1020.22 1020.11 1020.04 1020.03 1020.09 1020.21 1020.40 1020.67 1021.01 1021.39
1022.39 1022.50 1022.56 1022.60 1022.62 1022.63 1022.65 1022.67 1022.70 1022.74 1022.78 1022.83 1022.89 1022.97 1023.05 1023.15 1023.25 1023.34 1023.41 1023.46 1023.46 1023.41 1023.31 1023.15 1022.94 1022.70 1022.44 1022.17 1021.91 1021.68 1021.48 1021.32 1021.20 1021.12 1021.08 1021.08 1021.13 1021.22 1021.36 1021.54 1021.77 1022.04 1022.35
1022.78 1022.87 1022.93 1022.96 1022.98 1022.99 1022.99 1022.99 1023.00 1023.01 1023.04 1023.08 1023.15 1023.25 1023.37 1023.51 1023.66 1023.82 1023.95 1024.05 1024.09 1024.07 1023.98 1023.82 1023.60 1023.34 1023.05 1022.76 1022.49 1022.25 1022.06 1021.92 1021.83 1021.80 1021.82 1021.88 1021.97 1022.10 1022.27 1022.46 1022.67 1022.91 1023.16
1023.06 1023.15 1023.21 1023.25 1023.28 1023.29 1023.30 1023.31 1023.32 1023.34 1023.37 1023.43 1023.52 1023.64 1023.80 1023.99 1024.19 1024.39 1024.56 1024.69 1024.75 1024.74 1024.64 1024.46 1024.21 1023.92 1023.59 1023.27 1022.97 1022.72 1022.52 1022.39 1022.33 1022.33 1022.39 1022.49 1022.62 1022.79 1022.98 1023.18 1023.39 1023.61 1023.83
1023.25 1023.33 1023.40 1023.46 1023.50 1023.54 1023.58 1023.61 1023.65 1023.69 1023.75 1023.84 1023.96 1024.11 1024.31 1024.53 1024.76 1024.98 1025.17 1025.31 1025.37 1025.34 1025.22 1025.02 1024.73 1024.40 1024.05 1023.70 1023.38 1023.12 1022.92 1022.80 1022.75 1022.78 1022.86 1022.99 1023.15 1023.34 1023.54 1023.76 1023.97 1024.18 1024.38
1023.33 1023.42 1023.50 1023.57 1023.65 1023.72 1023.79 1023.87 1023.94 1024.03 1024.13 1024.25 1024.40 1024.59 1024.81 1025.05 1025.29 1025.51 1025.70 1025.82 1025.86 1025.80 1025.66 1025.42 1025.11 1024.76 1024.39 1024.04 1023.72 1023.46 1023.27 1023.17 1023.14 1023.18 1023.28 1023.43 1023.61 1023.81 1024.02 1024.23 1024.43 1024.62 1024.79
Thickness
5692 5691 5690 5690 5690 5689 5689 5689 5688 5687 5687 5687 5686 5685 5683 5683 5684 5683 5682 5683 5682 5683 5683 5684 5683 5683 5683 5682 5682 5682 5681 5681 5681 5680 5679 5680 5681 5681 5682 5682 5684 5685 5685
5685 5683 5682 5682 5681 5681 5681 5681 5681 5681 5681 5681 5681 5679 5677 5677 5677 5676 5676 5676 5676 5677 5677 5677 5676 5677 5676 5676 5675 5675 5674 5674 5673 5672 5671 5671 5672 5673 5674 5674 5675 5676 5677
5680 5676 5674 5673 5672 5672 5672 5672 5672 5673 5674 5674 5674 5673 5672 5670 5669 5668 5668 5667 5667 5667 5668 5668 5669 5669 5669 5668 5668 5668 5668 5666 5666 5666 5665 5664 5664 5663 5664 5665 5665 5666 5668
5675 5671 5668 5665 5664 5663 5664 5664 5664 5665 5665 5666 5666 5665 5662 5660 5658 5658 5658 5658 5659 5659 5659 5659 5660 5661 5661 5660 5660 5660 5661 5660 5659 5659 5660 5659 5659 5657 5656 5656 5656 5656 5657
5670 5666 5662 5659 5657 5656 5656 5656 5657 5657 5657 5658 5657 5656 5654 5652 5651 5650 5650 5650 5650 5650 5651 5651 5652 5652 5653 5652 5652 5652 5653 5653 5653 5652 5652 5652 5652 5653 5651 5649 5647 5646 5646
5664 5659 5655 5653 5651 5649 5648 5649 5649 5649 5649 5649 5649 5648 5645 5644 5643 5642 5641 5641 5641 5641 5642 5643 5643 5643 5644 5644 5644 5644 5645 5645 5646 5646 5645 5645 5645 5646 5645 5643 5640 5638 5636
5658 5653 5649 5646 5644 5642 5641 5640 5640 5638 5638 5638 5638 5637 5636 5635 5633 5632 5631 5631 5631 5632 5633 5634 5634 5634 5635 5635 5636 5636 5636 5637 5638 5638 5638 5639 5639 5639 5639 5637 5634 5630 5626
5651 5647 5642 5639 5636 5634 5633 5632 5630 5629 5628 5628 5628 5627 5627 5626 5624 5623 5622 5621 5621 5622 5623 5624 5625 5625 5626 5627 5627 5628 5628 5629 5630 5630 5630 5631 5632 5632 5633 5632 5629 5624 5619
5644 5639 5635 5631 5628 5626 5624 5622 5621 5620 5619 5619 5618 5617 5616 5616 5614 5613 5613 5612 5612 5613 5614 5615 5615 5616 5616 5617 5619 5619 5619 5620 5621 5622 5622 5623 5624 5625 5625 5625 5625 5623 5617
5637 5632 5626 5622 5619 5617 5615 5613 5612 5610 5609 5608 5608 5607 5606 5605 5604 5603 5602 5602 5603 5603 5604 5604 5605 5606 5607 5608 5609 5610 5611 5612 5613 5613 5614 5615 5616 5617 5617 5617 5618 5617 5614
5631 5626 5620 5615 5611 5609 5607 5604 5603 5602 5600 5598 5598 5597 5595 5595 5594 5593 5592 5592 5592 5593 5593 5594 5595 5596 5597 5598 5600 5601 5601 5603 5604 5605 5606 5607 5608 5609 5609 5609 5609 5608 5606
5625 5619 5613 5608 5605 5601 5599 5596 5594 5593 5591 5590 5589 5587 5586 5585 5584 5583 5582 5582 5582 5582 5583 5584 5585 5587 5587 5588 5589 5590 5591 5593 5594 5595 5597 5597 5599 5600 5600 5600 5600 5598 5597
5617 5611 5605 5600 5597 5594 5591 5589 5586 5584 5582 5581 5579 5577 5576 5574 5573 5572 5572 5572 5572 5572 5573 5574 5575 5576 5576 5577 5578 5580 5581 5582 5584 5585 5587 5588 5589 5590 5590 5591 5590 5589 5587
5611 5604 5598 5592 5589 5586 5582 5580 5577 5575 5573 5572 5570 5567 5565 5564 5563 5562 5562 5562 5562 5563 5563 5564 5565 5566 5566 5568 5569 5570 5571 5572 5574 5575 5577 5578 5579 5580 5581 5581 5581 5580 5578
5604 5598 5591 5585 5581 5577 5574 5571 5569 5567 5565 5563 5560 5557 5555 5555 5554 5553 5552 5552 5553 5553 5553 5554 5555 5557 5558 5558 5560 5561 5561 5562 5564 5565 5566 5568 5570 5571 5572 5573 5571 5571 5569
5599 5592 5585 5580 5574 5570 5567 5564 5561 5559 5556 5554 5551 5549 5547 5546 5545 5544 5543 5543 5543 5543 5544 5544 5546 5547 5548 5549 5550 5551 5552 5553 5554 5555 5556 5558 5559 5561 5561 5561 5561 5562 5561
5594 5587 5581 5574 5568 5564 5561 5557 5554 5551 5548 5546 5543 5541 5539 5537 5536 5535 5535 5534 5534 5535 5535 5536 5537 5538 5539 5541 5542 5543 5544 5544 5544 5545 5546 5548 5549 5551 5552 5551 5551 5551 5550
5590 5582 5575 5568 5562 5558 5554 5550 5547 5544 5541 5538 5536 5534 5532 5530 5529 5528 5527 5526 5526 5526 5526 5527 5529 5530 5531 5533 5535 5536 5537 5536 5536 5536 5538 5539 5540 5541 5543 5543 5542 5542 5541
5585 5577 5570 5563 5557 5552 5548 5545 5541 5538 5535 5533 5530 5528 5526 5524 5522 5521 5520 5519 5519 5519 5519 5520 5521 5523 5524 5526 5528 5530 5530 5529 5529 5530 5531 5532 5533 5534 5535 5536 5535 5534 5533
5577 5570 5563 5556 5551 5546 5543 5539 5535 5533 5530 5527 5525 5522 5520 5518 5517 5515 5514 5514 5514 5513 5514 5514 5514 5516 5517 5520 5522 5523 5524 5524 5524 5525 5526 5527 5528 5529 5530 5530 5530 5529 5527
5571 5564 5558 5552 5546 5542 5538 5534 5531 5528 5525 5523 5520 5517 5516 5514 5513 5511 5510 5509 5509 5509 5508 5508 5509 5510 5512 5514 5516 5518 5519 5519 5520 5521 5522 5523 5524 5525 5526 5526 5526 5525 5524
5565 5559 5553 5547 5541 5538 5534 5530 5526 5524 5521 5519 5516 5514 5512 5511 5510 5508 5507 5506 5505 5505 5504 5504 5504 5505 5507 5509 5512 5514 5515 5517 5518 5518 5519 5520 5522 5523 5523 5523 5523 5523 5523
5561 5555 5549 5543 5538 5535 5531 5527 5524 5521 5519 5516 5513 5511 5509 5507 5506 5505 5504 5503 5502 5502 5501 5501 5501 5502 5504 5506 5509 5511 5513 5514 5516 5516 5518 5519 5520 5521 5521 5521 5522 5522 5522
5557 5552 5546 5541 5536 5532 5529 5526 5522 5520 5517 5514 5511 5509 5507 5505 5503 5502 5502 5501 5500 5500 5500 5500 5500 5501 5502 5505 5507 5509 5511 5513 5515 5516 5517 5519 5520 5520 5520 5520 5521 5521 5520
5555 5549 5545 5540 5535 5531 5528 5524 5521 5519 5515 5513 5510 5507 5505 5503 5501 5500 5499 5499 5498 5498 5499 5499 5500 5501 5503 5504 5507 5508 5511 5513 5514 5516 5518 5519 5520 5520 5520 5520 5520 5520 5520
5553 5548 5543 5539 5534 5531 5527 5524 5521 5518 5515 5512 5509 5507 5505 5503 5501 5500 5499 5499 5500 5501 5501 5501 5502 5503 5505 5507 5509 5511 5513 5514 5516 5517 5518 5518 5519 5520 5520 5521 5521 5521 5521